#timestamp,LO_Frequency,Hit,StdDev 
1507424415.1,286046984.5,N
1507424416.0,286046984.5,N
1507424435.8,286046983.0,N
1507424455.6,286046981.4,N
1507424475.5,286046981.8,N
1507424495.3,286046977.9,Y
1507424515.1,286046986.5,P
1507424535.9,286046985.7,P
1507424555.7,286046988.4,P
1507424575.5,286046988.4,Y
1507424595.4,286046999.0,P
1507424615.2,286047000.7,N
1507424635.0,286046998.5,N
1507424635.9,286046998.5,N
1507424655.8,286046998.2,N
1507424675.6,286047001.1,N
1507424695.4,286046999.3,N
1507424715.2,286046998.6,N
1507424735.1,286046998.4,N
1507424736.0,286046998.4,N
1507424755.8,286046998.5,N
1507424775.6,286046999.8,N
1507424795.5,286046999.9,N
1507424815.3,286046998.5,N
1507424835.1,286047000.2,N
1507424855.9,286047002.0,N
1507424875.7,286047004.0,N
1507424895.5,286047004.3,N
1507424915.4,286047000.7,N
1507424935.2,286046996.8,N
1507424955.0,286046997.0,N
1507424955.9,286046997.0,N
1507424975.8,286046998.5,N
1507424995.6,286046998.4,N
1507425015.4,286046999.2,N
1507425035.2,286046997.0,N
1507425055.1,286047000.2,N
1507425056.0,286047000.2,N
1507425075.8,286046996.9,N
1507425095.6,286046997.9,N
1507425115.5,286046996.9,N
1507425135.3,286046998.0,N
1507425155.1,286046994.5,N
1507425175.9,286046994.5,N
1507425195.7,286046990.5,Y
1507425215.5,286046992.5,P
1507425235.4,286046994.8,N
1507425255.2,286046993.2,N
1507425275.0,286046988.5,Y
1507425275.9,286046988.5,P
1507425295.8,286046995.1,N
1507425315.6,286046998.6,N
1507425335.4,286047004.4,N
1507425355.3,286047003.9,N
1507425375.1,286047002.7,N
1507425395.8,286046999.8,N
1507425415.7,286047002.8,N
1507425435.5,286047000.5,N
1507425455.3,286046996.6,N
1507425475.2,286046999.5,N
1507425495.9,286046998.5,N
1507425515.7,286046996.9,N
1507425535.5,286046997.2,N
1507425555.4,286046996.6,N
1507425575.2,286046998.4,N
1507425595.0,286047001.9,N
1507425595.9,286047001.9,N
1507425615.8,286047001.4,N
1507425635.6,286047005.9,N
1507425655.4,286047001.5,N
1507425675.3,286047001.6,N
1507425695.1,286047003.3,N
1507425696.0,286047003.3,N
1507425715.8,286047002.6,N
1507425735.7,286047000.6,N
1507425755.5,286047002.7,N
1507425775.3,286047001.9,N
1507425795.1,286047004.2,N
1507425815.9,286047002.2,N
1507425835.7,286047000.7,N
1507425855.5,286047002.3,N
1507425875.4,286047004.1,N
1507425895.2,286047003.4,N
1507425915.0,286047003.4,N
1507425915.9,286047003.4,N
1507425935.8,286047007.4,Y
1507425955.6,286047010.6,P
1507425975.4,286047014.7,P
1507425995.3,286047018.7,P
1507426015.1,286047024.8,Y
1507426035.8,286047012.2,P
1507426055.7,286047018.5,P
1507426075.5,286047015.1,P
1507426095.4,286047016.3,Y
1507426115.2,286047003.2,P
1507426135.0,286046995.3,N
1507426135.9,286046995.3,N
1507426155.7,286046996.6,N
1507426175.6,286046997.1,N
1507426195.4,286047002.2,N
1507426215.2,286046999.7,N
1507426235.1,286047001.6,N
1507426236.0,286047001.6,N
1507426255.8,286047000.6,N
1507426275.6,286046994.8,N
1507426295.5,286046987.8,N
1507426315.3,286046990.6,N
1507426335.1,286046985.9,N
1507426355.9,286046985.4,N
1507426375.7,286046989.7,N
1507426395.5,286046993.1,N
1507426415.3,286046994.4,N
1507426435.2,286046993.0,N
1507426455.0,286046998.9,N
1507426455.9,286046998.9,N
1507426475.7,286046995.3,N
1507426495.6,286046992.3,N
1507426515.4,286046989.5,N
1507426535.2,286046983.7,N
1507426555.1,286046984.7,N
1507426556.0,286046984.7,N
1507426575.8,286046986.3,N
1507426595.6,286046989.8,N
1507426615.5,286046984.8,N
1507426635.3,286046983.7,N
1507426655.1,286046983.1,N
1507426675.9,286046977.4,Y
1507426695.7,286046986.5,P
1507426715.5,286046984.4,P
1507426735.4,286046980.7,P
1507426755.2,286046977.7,Y
1507426775.0,286046993.0,P
1507426775.9,286046993.0,N
1507426795.8,286046991.8,N
1507426815.6,286046992.7,N
1507426835.4,286046990.8,Y
1507426855.3,286047000.4,P
1507426875.1,286046997.3,N
1507426876.0,286046997.3,N
1507426895.8,286046995.0,N
1507426915.7,286046996.2,N
1507426935.5,286046996.1,N
1507426955.3,286046996.8,N
1507426975.1,286046999.2,N
1507426995.9,286046999.5,N
1507427015.7,286046997.2,N
1507427035.5,286046996.8,N
1507427055.4,286046999.1,N
1507427075.2,286046995.2,N
1507427095.0,286046993.8,N
1507427095.9,286046993.8,N
1507427115.8,286046994.0,N
1507427135.6,286046997.9,N
1507427155.4,286046999.4,N
1507427175.3,286046999.0,N
1507427195.1,286046998.7,N
1507427196.0,286046998.7,N
1507427215.8,286046998.5,N
1507427235.7,286047000.0,N
1507427255.5,286047001.9,N
1507427275.3,286047003.9,N
1507427295.1,286047002.4,N
1507427315.9,286047001.5,N
1507427335.7,286047004.4,N
1507427355.5,286047005.9,N
1507427375.4,286047001.7,N
1507427395.2,286047002.3,N
1507427415.0,286047001.7,N
1507427415.9,286047001.7,N
1507427435.8,286047003.0,N
1507427455.6,286047006.0,N
1507427475.4,286047005.4,N
1507427495.3,286047004.1,N
1507427515.1,286047003.7,N
1507427516.0,286047003.7,N
1507427535.8,286047001.7,N
1507427555.7,286047004.1,N
1507427575.5,286047002.1,N
1507427595.3,286047001.5,N
1507427615.2,286047002.1,N
1507427635.9,286047004.4,N
1507427655.7,286047003.7,N
1507427675.6,286047004.2,N
1507427695.4,286047002.6,N
1507427715.2,286047001.8,N
1507427735.0,286047002.1,N
1507427735.9,286047002.1,N
1507427755.8,286047001.6,N
1507427775.6,286047006.0,Y
1507427795.5,286047002.1,P
1507427815.3,286047004.3,P
1507427835.1,286047001.0,N
1507427855.8,286046998.5,N
1507427875.7,286046999.0,N
1507427895.5,286046999.9,N
1507427915.3,286047001.0,N
1507427935.2,286046998.4,N
1507427955.9,286046998.2,N
1507427975.7,286046998.2,N
1507427995.6,286047000.9,N
